This demonstration page uses our WeatherBlox Daily Observations layout. Learn more.

Left ArrowRight Arrow

47.50024, -111.30081

Hourly Observations for November 4, 2015

Temp ( °F °C ) Dew Point ( °F °C ) Humidity (%) Winds ( mph kmh ) Pressure ( in mb ) Visibility ( mi km ) Precip ( " mm )
12:07 am 00:07 Cloudy with Light Snow 31 -0.6 31 -0.6 100 100 N 10 17 30.06 1018 2 3 0.01 0.25
12:53 am 00:53 Cloudy with Light Snow 31 -0.6 31 -0.6 100 100 NNW 13 20 30.01 1016 2 3 0.02 0.51
1:12 am 01:12 Cloudy with Light Snow 30 -1 30 -1 100 100 N 10 17 30.06 1018 2 3 0.00 0.00
1:23 am 01:23 Cloudy with Light Snow 31 -0.6 30 -1.1 96 96 N 10 17 30.06 1018 2 2 0.03 0.76
1:53 am 01:53 Cloudy with Light Snow 31 -0.6 30 -1.1 96 96 NNW 10 17 30.02 1017 1 2 0.05 1.27
2:24 am 02:24 Cloudy with Light Snow 30 -1 30 -1 100 100 NNW 10 17 30.06 1018 2 3 0.00 0.00
2:53 am 02:53 Cloudy with Light Snow 31 -0.6 31 -0.6 100 100 NNW 10 17 30.04 1017 2 3 0.02 0.51
3:06 am 03:06 Cloudy with Light Snow 30 -1 30 -1 100 100 NNW 12 19 30.06 1018 2 3 0.00 0.00
3:53 am 03:53 Cloudy with Light Snow 31 -0.6 31 -0.6 100 100 NNW 10 17 30.04 1017 2 3 0.03 0.76
4:22 am 04:22 Cloudy with Light Snow 30 -1 30 -1 100 100 NNW 13 20 30.06 1018 2 3 0.00 0.00
4:36 am 04:36 Cloudy with Light Snow 30 -1 30 -1 100 100 NNW 10 17 30.06 1018 2 2 0.00 0.00
4:53 am 04:53 Cloudy with Light Snow 31 -0.6 30 -1.1 96 96 NNW 9 15 30.05 1018 2 3 0.02 0.51
5:24 am 05:24 Cloudy with Light Snow 30 -1 30 -1 100 100 NW 12 19 30.06 1018 1 2 0.00 0.00
5:31 am 05:31 Cloudy with Light Snow 31 -0.6 30 -1.1 96 96 NW 9 15 30.06 1018 2 2 0.00 0.03
5:40 am 05:40 Cloudy with Light Snow 30 -1 30 -1 100 100 NW 10 17 30.06 1018 2 2 0.00 0.00
5:53 am 05:53 Cloudy with Light Snow 31 -0.6 30 -1.1 96 96 NNW 10 17 30.06 1018 2 2 0.01 0.25
6:07 am 06:07 Cloudy with Light Snow 31 -0.6 30 -1.1 96 96 NW 10 17 30.06 1018 1 2 0.00 0.03
6:34 am 06:34 Cloudy with Light Snow 30 -1 28 -2 93 93 NW 12 19 30.06 1018 2 2 0.00 0.00
6:53 am 06:53 Cloudy with Light Snow 30 -1.1 29 -1.7 96 96 NW 10 17 30.08 1019 2 2 0.01 0.25
7:08 am 07:08 Cloudy with Light Snow 30 -1.1 29 -1.7 96 96 NW 9 15 30.09 1019 1 2 0.01 0.25
7:25 am 07:25 Cloudy with Light Snow 30 -1.1 29 -1.7 96 96 NW 10 17 30.09 1019 1 2 0.01 0.25
7:40 am 07:40 Cloudy with Mist and Fog 30 -1 28 -2 93 93 NW 8 13 30.09 1019 2 3 0.00 0.00
7:53 am 07:53 Cloudy with Mist and Fog 30 -1.1 29 -1.7 96 96 NW 9 15 30.09 1019 3 4 0.01 0.25
8:09 am 08:09 Cloudy with Mist and Fog 30 -1.1 29 -1.7 96 96 NW 8 13 30.09 1019 3 4 0.00 0.00
8:53 am 08:53 Cloudy with Mist and Fog 31 -0.6 29 -1.7 92 92 NW 8 13 30.10 1019 3 5 0.00 0.00
9:14 am 09:14 Cloudy with Mist and Fog 30 -1 28 -2 93 93 WNW 7 11 30.09 1019 5 8 0.00 0.00
9:53 am 09:53 Cloudy with Mist and Fog 31 -0.6 29 -1.7 92 92 SW 5 7 30.09 1019 5 8 0.00 0.00
10:13 am 10:13 Cloudy with Mist and Fog 31 -0.6 29 -1.7 92 92 SW 7 11 30.09 1019 5 8 0.00 0.00
10:22 am 10:22 Cloudy with Mist and Fog 30 -1 30 -1 100 100 SW 8 13 30.09 1019 5 8 0.00 0.00
10:53 am 10:53 Cloudy with Mist and Fog 31 -0.6 29 -1.7 92 92 SW 7 11 30.08 1019 6 10 0.00 0.00
11:53 am 11:53 Cloudy 32 0 31 -0.6 96 96 S 9 15 30.06 1018 8 13 0.00 0.00
12:16 pm 12:16 Mostly Sunny 32 0 30 -1 93 93 SSW 8 13 30.03 1017 9 14 0.00 0.00
12:53 pm 12:53 Mostly Sunny 33 0.6 30 -1.1 89 89 SSW 9 15 30.02 1017 10 16 0.00 0.00
1:53 pm 13:53 Sunny 36 2.2 30 -1.1 79 79 S 12 19 29.99 1016 10 16 0.00 0.00
2:53 pm 14:53 Sunny 36 2.2 30 -1.1 79 79 SSW 10 17 29.98 1015 10 16 0.00 0.00
3:53 pm 15:53 Sunny 36 2.2 30 -1.1 79 79 SSW 12 19 29.97 1015 10 16 0.00 0.00
4:53 pm 16:53 Sunny 34 1.1 28 -2.2 79 79 SSW 9 15 29.98 1015 10 16 0.00 0.00
5:53 pm 17:53 Clear 33 0.6 27 -2.8 78 78 SSW 12 19 29.98 1015 10 16 0.00 0.00
6:53 pm 18:53 Clear 32 0 26 -3.3 79 79 SSW 12 19 29.99 1016 10 16 0.00 0.00
7:53 pm 19:53 Clear 31 -0.6 25 -3.9 79 79 SSW 12 19 30.00 1016 10 16 0.00 0.00
8:53 pm 20:53 Clear 30 -1.1 25 -3.9 82 82 SSW 12 19 30.00 1016 10 16 0.00 0.00
9:53 pm 21:53 Clear 27 -2.8 23 -5 85 85 SSW 10 17 30.00 1016 10 16 0.00 0.00
10:53 pm 22:53 Clear 27 -2.8 23 -5 85 85 SSW 10 17 29.99 1016 10 16 0.00 0.00
11:53 pm 23:53 Clear 27 -2.8 22 -5.6 81 81 SSW 12 19 29.98 1015 10 16 0.00 0.00

Powered by AerisWeather